Theta_e
317 320 321 321 319 317 317 317 317 318 318 318 319 318 318 317 316 317 318 317 316 316 316 316 315 315 315 316 316 316 317 317 316 315 315 315 315 315 316 316 316 315 315 312 309 308 308 308 307 306 305 304 303 302 301 301 300 299 298 298 297 296 296 296 295 295 295 294 293 293 293 292 292 291 291 291 291 290 290 290 291 291 290 290 289 289
319 320 320 319 317 317 318 317 318 318 318 319 319 319 318 318 317 316 317 316 315 317 317 317 317 316 316 316 316 317 317 316 317 316 316 316 316 316 316 317 316 316 319 317 311 308 307 307 307 305 304 304 302 301 301 300 300 299 298 298 297 296 296 296 295 295 294 294 294 293 293 292 291 291 291 291 290 290 290 290 290 290 290 289 289 289
321 320 319 317 317 317 317 318 319 319 320 320 320 320 318 318 317 317 319 315 313 316 318 317 317 316 316 317 316 316 316 316 316 316 316 316 316 316 316 317 317 319 322 319 313 309 306 306 306 304 303 303 302 301 300 300 300 299 298 298 297 297 296 296 295 295 294 294 293 293 293 292 292 291 291 291 290 290 290 290 290 290 289 289 288 288
321 319 318 318 317 317 316 317 319 319 319 320 319 319 317 317 318 318 318 315 312 315 317 317 316 316 315 316 316 316 316 316 316 317 317 318 318 317 317 317 319 321 321 316 312 310 307 304 304 303 302 302 301 301 300 300 299 299 298 298 297 297 296 296 295 295 294 294 293 293 293 292 292 292 291 291 291 290 290 289 289 289 289 288 288 288
319 318 319 319 317 318 318 318 320 319 317 320 321 319 316 318 318 319 320 319 316 315 316 317 317 316 317 317 317 316 316 316 316 316 317 318 318 318 318 320 322 324 320 315 312 310 308 305 303 302 302 301 301 300 300 299 299 299 298 298 297 297 296 296 295 295 294 294 293 293 293 292 292 292 291 291 291 290 290 290 289 289 288 288 288 288
317 318 321 321 319 321 321 318 321 322 318 317 322 321 318 318 318 320 322 324 325 323 318 318 318 317 319 320 319 319 319 318 317 316 316 317 317 317 318 320 323 325 320 314 312 310 308 305 302 301 301 300 300 300 300 299 299 299 298 298 297 297 296 296 295 295 294 293 293 293 293 293 292 292 291 291 291 291 290 290 290 289 288 288 288 287
317 318 320 321 320 323 324 321 321 324 318 315 324 328 322 321 323 324 324 325 329 327 321 320 320 319 318 317 318 320 322 321 318 317 317 317 317 317 317 319 322 323 320 315 313 310 307 305 302 301 301 300 300 300 300 299 298 298 298 298 297 297 296 296 295 294 294 293 293 293 293 292 292 291 291 291 291 291 291 290 289 289 288 288 287 287
318 318 321 322 322 323 323 320 320 321 318 319 329 331 324 322 324 325 325 326 327 324 321 322 321 320 319 316 318 320 320 320 318 317 318 317 316 316 316 321 323 322 319 317 314 311 307 305 303 302 301 300 300 300 299 299 298 298 298 297 297 297 296 296 295 294 294 294 293 293 293 292 292 292 291 291 291 290 290 289 289 288 288 288 287 287
322 322 323 324 322 322 320 320 325 324 320 322 326 325 323 323 322 322 322 324 324 320 321 324 322 321 320 315 318 320 317 318 317 316 317 316 316 315 313 321 325 322 319 317 315 312 308 305 303 302 301 301 300 300 299 299 298 298 297 297 297 297 296 296 295 294 294 293 293 293 292 292 292 291 291 291 290 290 290 289 289 288 288 288 287 287
321 319 320 322 322 320 319 321 328 329 322 322 323 321 322 323 320 319 321 320 321 320 320 324 323 320 319 315 316 319 317 317 316 315 316 314 315 315 314 322 327 321 318 318 315 313 309 305 303 303 302 301 300 300 299 299 298 297 297 297 297 296 296 296 295 294 294 293 293 293 292 292 291 291 291 291 290 290 290 290 289 289 288 288 287 287
317 312 314 321 320 318 319 318 318 322 321 320 321 319 321 322 319 319 319 318 321 320 319 322 322 318 319 318 317 318 317 317 316 314 314 314 314 315 315 324 328 321 318 319 316 314 310 305 304 303 302 301 300 300 299 299 298 297 297 297 296 296 296 296 295 294 294 293 293 292 292 291 291 291 291 291 290 290 290 290 289 289 288 287 287 286
316 313 314 320 319 316 320 319 314 314 317 319 319 317 320 323 322 320 318 318 321 321 319 322 322 319 319 319 317 318 317 316 316 314 314 314 315 316 316 321 326 322 319 319 317 316 312 307 305 303 302 301 300 300 299 298 298 297 297 297 296 296 296 296 295 294 294 293 293 292 292 292 291 291 291 291 291 290 290 289 289 288 287 287 286 286
319 316 316 319 318 317 320 320 315 313 316 320 320 318 321 323 322 323 322 323 323 320 321 324 322 319 318 317 316 317 316 316 315 314 314 315 316 319 320 321 325 323 319 318 317 316 313 309 307 303 301 301 300 299 299 298 298 297 297 297 296 296 296 295 295 294 294 293 293 292 292 291 291 291 291 291 291 290 289 289 288 287 287 286 286 286
325 321 319 319 318 317 317 317 318 318 316 317 319 321 324 323 321 323 325 326 326 321 321 322 323 324 319 317 318 317 316 316 316 315 316 318 319 321 325 327 327 324 320 318 317 315 313 310 308 304 301 300 300 299 299 298 298 297 297 296 296 296 295 295 295 294 294 293 293 292 292 291 291 291 291 291 290 290 289 289 288 287 287 287 286 286
326 323 320 321 320 317 316 314 317 322 317 313 317 319 322 324 320 320 322 323 323 323 321 318 322 325 320 319 321 317 315 316 315 316 318 322 322 323 329 331 327 323 320 318 317 315 313 311 307 303 301 301 300 299 299 298 298 297 297 296 296 296 295 295 295 294 294 293 293 292 292 291 291 291 291 290 290 290 289 289 288 287 287 287 286 286
321 321 320 320 320 316 316 316 317 323 322 316 317 318 320 322 319 318 321 320 319 322 321 318 322 321 315 316 319 316 316 316 314 315 317 321 321 323 329 330 326 322 319 319 318 315 314 311 306 302 302 301 300 300 299 298 298 297 297 296 296 296 295 295 294 294 293 293 292 292 291 291 291 291 290 290 290 289 289 288 288 287 287 287 286 286
318 321 323 318 317 315 314 317 319 322 323 317 319 321 320 322 321 320 323 320 318 320 318 317 319 317 313 315 317 315 316 316 315 315 315 318 318 319 325 326 324 322 320 319 318 316 314 312 307 303 302 302 301 300 299 298 298 298 297 297 296 296 295 295 294 294 293 293 292 292 291 291 290 290 290 290 289 289 288 288 288 287 287 286 286 285
318 319 322 318 317 315 311 314 316 318 319 319 322 322 319 322 323 320 321 322 321 320 318 315 316 314 313 316 318 316 315 314 315 314 314 317 317 316 320 323 322 322 320 319 318 316 314 312 309 305 303 302 301 300 300 299 299 298 297 297 296 296 295 295 295 294 293 293 292 291 291 291 290 290 290 289 289 289 288 288 287 287 286 286 285 285
320 318 321 318 316 314 310 313 316 316 317 318 319 318 318 322 323 320 320 321 321 319 316 315 314 313 313 315 317 317 315 314 314 314 314 315 314 315 318 320 322 323 322 320 318 317 314 313 310 306 303 303 302 301 300 299 299 298 298 297 296 296 295 295 294 294 293 293 292 291 291 290 290 289 289 289 288 288 287 287 287 286 286 285 285 285
320 319 320 316 313 313 311 314 319 319 317 314 314 315 316 317 321 322 320 320 319 316 315 315 314 314 315 315 317 318 316 314 314 314 314 314 313 315 317 319 323 325 325 322 319 316 314 313 310 305 304 304 303 302 301 300 299 298 298 297 296 296 295 295 294 294 293 292 292 291 290 290 289 289 288 288 288 287 287 286 286 286 285 285 285 284
318 318 318 315 312 314 314 314 317 319 317 315 314 315 314 313 315 318 319 319 318 316 316 317 316 316 317 318 319 318 315 314 315 314 314 315 313 314 317 320 323 326 326 324 321 317 315 314 310 305 305 305 303 303 302 300 299 298 298 297 297 296 295 295 294 294 293 292 291 291 290 290 289 288 288 287 287 287 286 286 285 285 285 284 284 284
319 318 317 318 315 315 316 314 314 316 317 316 315 314 314 314 315 316 317 319 318 317 316 317 317 316 316 319 319 317 315 315 316 316 315 315 314 315 318 322 323 325 325 325 324 320 317 316 312 306 304 304 303 302 302 300 299 298 298 297 297 296 295 295 294 293 293 292 291 290 290 289 288 288 287 287 286 286 285 285 285 285 284 284 284 283
321 320 317 317 317 316 317 316 315 316 316 316 316 315 314 314 315 316 316 316 317 317 317 316 317 316 316 321 320 316 315 314 315 316 316 317 317 317 320 323 324 324 324 325 324 322 319 319 315 307 303 303 302 302 301 300 299 298 297 297 296 295 295 295 294 293 292 291 291 290 289 288 288 287 286 286 285 285 285 284 284 284 283 283 283 283
319 319 316 316 317 317 318 317 314 313 313 314 317 317 315 314 314 314 315 317 318 317 316 317 317 316 316 321 319 315 315 314 315 318 319 319 319 319 321 323 324 324 324 324 323 321 321 320 316 311 308 304 300 300 300 299 299 298 297 296 296 295 295 294 293 293 292 291 290 289 289 288 287 286 286 285 284 284 284 284 283 283 283 282 282 282
315 317 317 316 317 317 317 315 313 313 313 313 315 316 316 316 315 315 317 319 318 316 316 317 316 315 316 320 319 316 316 315 315 317 318 317 318 318 318 320 323 325 324 322 322 321 322 321 317 314 311 304 299 299 299 298 298 297 297 296 296 295 294 294 293 292 291 290 290 289 288 287 286 285 285 284 284 283 283 283 282 282 282 282 282 281
315 318 318 316 316 317 316 315 315 317 315 313 313 314 315 316 317 316 316 317 316 316 316 315 315 314 314 316 316 315 315 315 314 314 315 315 316 316 318 320 322 323 321 320 320 320 321 320 316 313 310 303 298 298 298 297 297 297 296 296 295 295 294 293 293 292 291 290 289 288 287 286 285 285 284 283 283 282 282 282 282 281 281 281 281 281
316 318 317 314 314 315 314 314 315 317 315 314 315 315 314 315 316 316 316 316 315 316 315 315 315 314 313 313 313 312 312 313 312 313 314 314 315 316 317 320 320 318 318 317 318 319 318 317 314 312 309 303 298 298 298 297 297 296 296 295 295 294 294 293 292 291 290 289 288 287 286 285 285 284 283 283 282 282 282 281 281 281 281 281 281 280
316 315 314 314 314 313 312 312 312 313 312 312 315 314 314 315 316 317 317 315 315 316 315 315 315 315 314 312 312 312 312 312 312 312 312 312 313 314 316 319 320 318 318 318 318 318 317 316 315 312 310 304 298 297 297 297 296 296 295 295 294 294 293 292 292 290 289 288 287 287 286 285 284 283 283 282 281 281 281 280 280 280 280 280 279 279
316 313 313 314 314 313 312 312 312 312 311 311 312 312 313 314 315 316 316 314 314 315 314 314 315 315 314 312 312 312 312 312 312 312 312 312 312 311 313 318 320 320 320 321 320 318 316 316 315 313 311 307 301 297 296 296 296 295 295 294 294 293 293 292 291 289 288 288 287 286 285 284 283 283 282 281 281 280 280 279 279 279 279 279 278 278
315 313 313 313 313 313 313 313 313 313 312 312 312 312 312 313 313 314 313 313 314 314 313 313 314 314 313 312 312 312 312 312 312 312 312 311 311 311 312 314 314 314 316 318 318 317 315 313 313 313 311 309 306 301 296 294 295 294 294 294 293 292 292 291 290 289 288 287 286 285 284 284 282 282 281 280 280 279 279 278 278 278 278 278 278 277
313 312 312 313 313 313 313 313 313 313 313 313 313 312 312 313 313 313 313 313 313 313 313 313 314 313 312 312 312 311 311 312 311 311 311 311 311 311 311 311 311 311 312 313 314 315 313 312 312 311 310 310 308 302 296 295 295 294 293 292 292 292 291 290 289 288 287 286 285 285 284 283 281 281 280 279 279 278 278 278 277 277 277 277 277 276
311 312 313 313 313 314 313 313 313 312 313 313 313 312 312 312 313 313 313 313 313 313 313 313 314 313 311 311 312 312 312 311 311 311 311 311 311 311 310 311 312 312 312 311 312 314 314 314 314 313 311 311 306 300 297 296 294 292 292 292 291 291 290 289 288 287 286 285 285 284 283 282 280 280 279 279 278 278 277 277 277 277 276 276 276 276
311 312 313 314 315 315 314 314 313 313 314 314 313 313 312 312 312 312 313 312 312 312 313 314 313 312 312 312 312 312 311 311 311 311 311 311 311 310 311 311 313 313 312 311 312 314 315 316 316 315 313 310 304 300 300 298 294 293 292 292 291 290 289 288 287 286 285 285 284 283 282 281 280 279 278 278 277 277 277 277 276 276 276 276 276 276
310 312 313 314 315 315 314 314 314 314 315 316 315 314 313 312 313 313 313 312 312 312 312 312 312 311 312 312 312 312 312 311 311 311 310 311 310 310 311 311 312 313 312 311 312 314 315 314 314 314 310 304 303 303 302 300 297 295 293 291 290 289 287 286 286 285 284 284 283 282 281 280 279 278 278 277 277 277 276 276 276 276 276 276 275 275
311 311 312 313 315 315 315 315 315 316 316 315 315 314 312 312 312 312 313 312 311 312 311 311 311 311 311 311 311 311 311 311 311 311 310 310 311 311 311 311 311 311 311 312 311 312 313 313 314 316 309 303 303 304 301 299 297 294 292 291 289 287 286 286 285 284 284 283 282 281 280 279 278 278 277 277 276 276 276 275 275 275 275 275 275 275
313 312 311 312 313 314 314 315 317 317 315 313 314 313 311 312 312 312 313 312 311 311 311 311 311 310 310 311 311 311 311 311 311 311 311 311 311 311 311 311 311 311 311 311 311 312 313 311 310 311 308 304 303 302 299 297 295 293 290 289 288 286 285 285 284 283 283 282 281 280 279 279 278 277 276 276 275 275 275 274 274 275 275 275 275 275
312 313 312 312 313 314 314 314 315 315 314 314 315 314 312 312 312 313 313 313 311 311 311 310 310 310 310 311 310 310 311 310 311 310 311 311 312 312 312 311 311 312 311 311 311 309 308 306 304 304 305 304 302 300 298 296 294 292 289 287 286 285 284 284 283 283 282 281 280 280 279 278 277 276 276 275 274 274 274 274 274 274 274 274 274 274
312 312 313 313 314 314 315 315 315 316 316 316 316 314 312 311 311 312 313 313 312 311 311 311 310 310 310 311 311 311 311 311 311 311 311 311 312 312 312 312 312 312 312 311 311 308 305 303 304 305 305 302 300 298 297 295 292 290 287 285 285 284 284 283 283 282 282 281 280 279 278 278 277 276 275 274 274 274 273 273 274 274 274 274 274 274
312 312 312 313 314 315 316 316 317 316 316 315 314 313 312 312 312 312 314 314 314 312 312 311 311 311 311 311 311 311 312 312 312 311 311 312 312 312 312 312 312 312 311 310 308 308 306 304 303 304 302 298 297 296 295 293 291 288 286 285 284 284 283 283 283 282 282 281 280 279 278 277 277 276 275 274 274 274 274 273 273 274 274 274 274 274
312 311 312 313 314 315 316 317 316 316 317 317 316 313 313 312 311 315 316 317 315 312 312 312 312 312 312 312 312 312 313 313 312 312 312 312 311 311 312 313 313 312 313 310 306 304 305 303 303 303 299 295 295 296 294 292 290 287 286 284 283 283 283 283 283 282 281 280 279 278 277 277 276 276 275 274 274 273 274 274 273 273 273 273 273 274
311 311 312 314 314 314 315 317 316 315 316 318 316 314 313 312 313 315 316 316 313 313 313 312 312 312 311 312 311 311 310 310 310 309 309 308 308 309 309 311 311 310 309 308 304 302 301 299 299 301 299 296 296 295 292 290 288 286 285 284 283 283 283 283 283 282 280 279 277 276 276 276 275 275 275 274 274 273 273 273 273 273 273 273 273 273
311 311 311 313 314 314 314 315 315 315 315 314 314 313 312 313 314 314 312 310 310 310 309 309 308 307 307 307 307 306 306 306 306 306 306 305 305 306 306 307 308 308 305 303 300 298 297 296 296 296 296 296 295 293 291 289 287 286 285 283 283 283 283 283 282 281 279 277 276 275 275 275 274 274 274 274 274 273 272 272 272 273 273 273 272 272
312 313 312 312 313 312 313 314 314 314 312 309 310 313 313 312 312 310 308 307 306 306 306 305 305 305 304 305 305 305 305 305 305 305 305 305 305 305 305 306 308 309 307 305 301 297 296 298 297 293 293 294 293 292 290 288 287 286 284 283 283 284 283 282 281 279 277 276 275 274 274 274 273 273 273 273 273 273 272 271 272 273 273 272 271 271
308 311 311 310 309 310 312 313 312 310 306 303 304 306 305 305 306 306 305 306 305 304 303 303 302 303 303 303 303 304 304 304 304 304 304 305 304 304 305 305 306 308 308 306 302 296 295 299 298 294 292 293 292 290 289 288 287 286 284 284 284 283 282 280 279 277 275 274 273 273 272 272 272 271 272 272 272 272 271 271 271 271 271 271 270 269
303 304 303 304 305 305 306 306 305 305 303 301 300 300 301 303 304 303 302 303 303 301 300 300 300 300 299 299 300 300 301 301 301 301 302 302 302 303 304 304 305 306 305 303 299 295 295 298 297 293 292 291 290 290 289 288 287 286 285 284 283 281 280 278 276 275 274 272 272 271 271 270 270 270 270 271 272 272 271 270 270 269 269 269 269 268
300 300 300 301 301 300 300 302 302 301 300 297 297 300 303 303 301 300 299 299 300 299 298 298 298 297 296 296 297 297 297 297 298 298 298 298 299 300 301 302 303 303 303 301 299 296 293 293 294 295 295 291 288 288 288 287 287 286 285 284 282 280 279 277 275 274 272 271 270 270 269 269 268 268 269 270 271 272 272 271 270 269 267 268 268 268
297 299 298 296 296 296 297 299 299 297 296 295 296 301 303 302 300 300 298 297 296 295 295 295 296 295 295 296 295 295 295 296 296 296 296 297 298 299 300 301 301 302 303 303 301 297 294 294 297 300 300 295 288 286 286 286 286 287 286 284 281 279 277 276 274 272 271 270 269 268 268 267 267 266 267 268 269 270 270 270 270 269 267 268 268 268
294 295 294 293 294 294 294 294 294 295 295 295 298 302 302 299 298 298 296 294 293 293 293 293 293 294 294 294 294 294 294 295 296 296 297 297 298 299 300 300 301 301 302 302 300 297 295 297 300 301 300 296 290 286 285 285 285 286 285 283 281 278 276 274 273 271 270 269 268 267 267 267 266 266 266 267 267 268 268 269 269 269 269 269 269 269
293 293 292 292 293 293 292 293 294 295 295 295 297 299 297 294 293 293 292 293 293 293 293 294 294 294 294 294 295 295 296 296 296 297 297 298 298 299 300 300 301 302 303 302 300 297 296 297 300 300 298 295 291 287 285 284 284 285 284 282 279 277 275 273 272 270 269 268 267 266 266 266 266 266 266 266 267 268 269 270 270 270 269 269 270 270
293 292 292 292 293 293 293 294 294 294 294 293 293 293 292 292 292 292 292 292 293 293 293 293 292 293 293 294 294 295 295 296 296 296 296 297 297 298 298 299 300 301 302 300 299 298 296 294 294 295 294 292 290 288 285 284 284 283 282 280 278 276 274 272 270 269 268 267 266 266 266 266 266 266 266 266 266 267 268 269 270 269 269 269 269 270
293 292 292 292 292 292 292 292 291 291 291 291 291 291 292 292 291 290 290 291 291 291 291 291 290 290 291 292 293 293 294 294 294 294 295 295 295 296 297 297 298 299 299 299 299 300 300 296 293 292 292 291 290 288 285 284 283 282 280 279 277 275 274 272 270 268 267 267 266 266 266 266 266 266 266 266 267 267 267 268 269 269 269 269 269 270
Wind_Speed
4 4 4 7 11 10 10 13 14 14 13 12 11 9 9 8 8 13 10 5 9 6 8 13 13 14 15 14 13 12 11 11 12 13 13 12 13 13 12 12 12 13 11 10 18 26 28 29 29 29 29 30 31 31 32 34 35 35 35 35 35 34 34 34 34 33 32 32 30 28 28 28 28 27 26 25 23 22 21 20 20 18 16 15 15 13
1 6 9 14 16 11 10 12 12 12 12 12 10 8 8 7 9 14 8 3 6 5 6 9 11 13 14 13 12 11 12 13 13 14 15 16 16 13 12 13 13 10 6 9 13 19 25 27 27 28 29 31 32 32 33 35 36 36 36 37 36 36 35 36 36 36 35 35 34 33 32 31 30 29 28 28 26 23 22 21 21 20 18 17 16 14
3 9 13 16 13 10 11 11 9 10 10 9 6 5 7 7 9 11 5 2 3 3 5 8 9 11 12 14 14 13 14 14 15 16 16 16 16 14 13 13 11 8 7 9 9 12 19 24 26 28 28 31 33 33 34 35 36 36 35 36 36 37 37 37 37 37 37 35 34 33 32 31 29 28 28 27 25 24 23 22 22 21 19 18 17 16
6 9 13 16 13 12 13 10 8 8 7 7 6 6 8 8 8 7 3 3 4 5 5 6 8 9 11 14 15 17 18 16 16 18 17 15 15 16 16 12 9 9 9 9 9 10 13 19 24 26 27 30 31 32 33 34 35 36 36 36 37 37 38 37 37 37 36 33 31 29 27 26 26 25 25 23 22 23 24 24 24 22 21 19 18 17
13 8 6 9 11 12 12 10 7 7 7 8 7 8 9 11 11 9 5 3 4 6 4 4 8 8 10 14 15 13 14 14 14 16 15 14 14 15 15 12 8 9 10 11 11 10 11 14 20 25 27 29 30 32 33 35 36 36 35 36 37 37 38 38 37 36 34 32 30 26 23 23 22 22 24 24 23 24 24 25 25 24 22 20 18 17
14 8 6 6 6 7 8 7 7 6 8 8 7 12 15 14 12 11 8 3 3 5 3 1 6 7 7 11 12 7 7 9 10 12 14 14 14 14 12 10 8 8 10 11 12 12 11 13 17 23 26 27 29 32 34 35 36 35 35 36 37 37 38 38 36 36 35 34 34 32 31 30 27 26 28 31 30 29 28 27 26 24 22 21 19 18
6 4 6 8 7 7 7 7 7 7 7 8 4 7 11 11 10 9 7 3 2 5 2 4 2 7 6 8 10 6 6 9 9 10 12 13 13 12 10 8 8 8 9 10 11 11 12 13 15 19 25 29 30 32 33 33 34 35 35 36 37 38 38 38 37 36 37 36 37 38 37 36 34 32 32 33 33 32 31 28 25 23 21 21 20 19
4 5 5 6 7 7 7 8 7 8 7 6 1 0 1 3 6 4 3 4 3 5 4 4 4 7 12 8 8 9 8 9 9 9 11 13 13 13 12 8 9 10 10 10 10 12 13 14 15 20 26 31 31 31 32 33 34 36 36 37 37 37 37 38 38 38 39 39 39 38 37 35 35 33 31 31 30 29 29 27 24 23 21 21 20 19
3 6 7 8 7 6 7 6 4 8 7 4 1 2 3 2 1 1 2 4 3 5 5 5 7 5 13 7 7 9 10 10 11 11 13 14 13 14 14 9 8 10 11 11 11 12 13 14 18 23 27 29 30 31 32 34 35 35 36 36 37 37 37 37 38 39 40 40 39 38 36 34 33 31 28 27 27 25 25 25 24 23 22 22 20 19
1 4 4 5 6 7 5 1 1 3 5 4 2 3 5 3 1 2 2 2 2 5 7 6 8 5 13 10 5 7 8 10 10 11 13 13 13 13 12 8 8 8 9 10 10 11 12 15 20 24 25 27 29 31 32 34 34 35 35 36 37 38 38 38 39 40 41 40 38 38 37 34 32 29 25 25 26 26 25 25 25 24 23 22 21 19
2 3 0 2 4 4 3 4 3 1 2 2 2 2 2 1 0 1 2 2 1 9 9 9 13 9 9 7 5 8 9 11 10 9 10 11 12 12 9 7 8 8 8 9 9 8 10 14 20 22 23 25 28 30 31 32 34 35 35 36 38 39 38 38 39 41 41 41 40 39 38 36 33 30 28 28 29 29 28 28 27 26 24 22 21 19
3 2 1 1 1 4 5 3 1 2 1 2 3 2 1 2 2 2 1 3 2 10 6 10 16 14 10 5 2 5 9 12 11 10 11 12 13 12 10 9 8 8 8 8 8 8 8 11 15 18 20 24 27 29 31 33 34 35 36 36 37 38 39 39 40 41 41 41 40 39 38 37 35 34 33 33 33 33 32 31 29 26 24 22 21 19
6 8 7 1 2 4 5 1 1 2 1 2 4 4 1 3 2 1 2 2 5 10 4 10 13 11 14 9 2 4 6 10 11 10 12 14 12 10 10 10 7 8 8 8 8 8 9 9 11 14 17 23 26 30 32 33 34 35 36 37 37 39 40 40 40 41 41 41 41 40 39 38 37 36 36 35 34 34 33 32 30 29 27 25 23 22
3 6 6 4 3 5 9 6 4 2 4 7 6 6 5 3 3 4 4 3 6 9 5 6 8 6 9 6 9 11 9 10 11 11 11 11 10 10 9 8 7 8 8 8 8 8 9 10 10 12 17 21 25 29 31 32 34 34 35 37 38 39 40 40 40 40 41 42 42 41 40 38 37 37 37 36 34 34 34 33 32 30 29 28 26 25
3 7 6 10 3 8 14 13 11 4 5 9 6 5 5 4 3 4 5 6 6 6 4 3 4 4 2 3 12 17 14 12 11 11 11 9 9 8 5 7 7 7 7 7 8 9 9 10 10 12 17 21 24 27 30 32 34 34 35 38 40 39 39 40 40 40 42 43 42 41 40 39 38 38 37 36 35 34 34 33 32 30 29 27 26 24
5 9 7 8 2 10 13 11 9 5 1 5 5 4 5 4 5 5 6 7 3 4 6 4 4 6 3 5 9 12 13 14 12 12 11 8 9 7 5 7 6 7 7 7 8 9 10 9 10 13 17 20 23 26 30 32 34 36 37 38 40 39 39 40 41 42 42 41 40 41 40 39 38 38 37 36 35 35 34 34 33 31 29 27 25 24
5 7 2 4 3 4 5 3 3 3 1 3 4 5 5 3 5 5 6 6 2 5 9 6 6 8 6 10 12 11 12 11 11 12 11 9 12 10 6 7 7 7 8 8 9 9 10 10 11 14 18 21 24 27 31 35 38 40 40 39 39 38 37 40 42 42 41 40 40 40 40 39 39 39 38 37 36 35 34 33 32 31 29 28 26 25
6 6 2 2 1 1 2 3 2 1 2 5 3 5 2 3 1 3 2 3 3 7 9 8 10 10 8 8 6 11 14 13 12 13 12 13 15 11 7 8 8 8 8 8 9 9 10 10 11 14 20 24 28 31 34 37 39 39 39 39 39 39 40 43 43 41 40 40 40 40 40 40 40 39 39 37 37 36 35 34 33 32 30 29 27 26
5 6 5 1 0 2 1 1 1 3 3 5 3 2 2 1 1 3 3 2 5 7 8 11 14 13 12 11 5 6 14 15 14 14 14 16 15 10 8 9 9 8 8 7 8 8 9 10 11 14 19 24 28 31 32 34 34 35 36 37 38 40 42 41 40 40 40 41 40 40 40 40 40 39 38 38 37 37 37 36 34 33 31 29 27 26
3 5 5 1 2 2 2 1 3 1 1 1 2 4 1 2 3 4 4 3 5 7 8 12 16 12 9 9 8 9 13 14 14 13 14 15 14 10 8 9 8 7 8 8 8 9 10 11 12 16 21 25 28 30 30 30 32 35 35 35 36 38 38 38 39 40 40 40 40 38 38 39 39 39 38 38 38 38 37 37 35 34 32 30 28 26
2 4 6 1 4 2 2 4 8 8 6 4 1 3 3 2 1 1 3 3 5 6 5 7 13 11 3 1 6 9 10 11 11 11 11 12 13 11 9 8 7 7 8 8 8 9 10 10 11 17 23 25 26 26 28 30 32 34 34 35 37 37 36 38 40 40 40 40 39 38 39 39 40 39 38 38 38 38 37 36 35 34 32 30 28 26
3 4 6 2 0 5 7 7 11 13 11 8 8 9 9 7 4 3 6 6 4 4 6 5 12 15 3 5 4 7 9 10 11 11 10 11 12 10 7 8 8 7 8 8 9 9 9 10 10 14 20 22 22 25 28 30 31 31 34 36 37 36 37 39 40 41 41 39 39 39 39 39 39 39 38 38 37 37 37 36 35 33 31 29 28 26
2 2 4 6 5 8 10 5 5 6 4 3 5 7 8 7 7 7 9 7 4 4 6 6 12 16 4 7 4 3 7 9 11 12 10 9 10 7 6 8 8 8 9 8 9 9 9 10 10 12 15 19 22 25 27 28 30 33 35 35 34 35 38 39 39 40 39 38 38 39 38 38 38 38 38 38 38 37 36 35 34 33 31 29 27 26
2 2 4 7 5 5 7 4 4 4 2 3 4 3 6 7 9 10 7 4 4 6 7 8 12 15 5 6 4 3 3 2 4 7 8 7 6 6 7 9 8 9 9 8 8 8 8 8 8 9 10 13 17 22 24 27 30 31 31 32 33 36 37 37 36 37 37 37 37 37 37 37 38 38 38 38 37 37 36 35 34 32 31 29 27 25
1 2 4 6 6 4 6 6 5 4 2 3 5 5 7 8 9 9 4 2 5 9 13 13 12 12 7 4 6 6 5 3 4 5 7 7 7 7 8 8 8 9 9 9 9 9 8 8 7 8 8 10 15 20 23 26 28 29 30 32 34 35 35 35 35 36 37 36 36 36 37 37 37 38 38 38 36 36 35 34 33 32 30 28 26 25
2 3 4 6 8 7 8 9 6 2 0 1 4 7 9 10 10 9 6 6 8 11 16 15 11 13 13 7 6 7 7 8 9 8 7 7 8 8 7 7 8 9 9 10 10 10 9 8 8 9 9 10 14 18 21 24 26 28 29 31 33 33 33 33 35 36 36 35 35 36 36 36 37 37 38 37 36 36 35 34 33 32 30 29 27 26
2 3 6 10 12 10 11 12 8 4 3 3 6 9 10 10 11 10 7 8 10 12 14 13 13 18 20 19 19 18 16 15 15 12 8 8 9 7 7 8 10 9 9 10 9 9 10 9 9 10 10 11 14 19 22 24 26 27 28 29 31 32 32 33 34 35 35 35 35 35 36 37 37 37 37 37 36 36 35 35 34 33 32 30 28 27
3 3 8 12 15 15 15 17 16 15 15 14 12 11 11 11 12 11 10 13 13 13 13 13 15 20 20 21 26 28 23 18 17 17 13 10 10 10 8 9 11 10 8 8 9 10 11 10 10 11 11 11 14 19 22 23 25 27 28 28 30 31 32 33 34 34 34 34 34 34 36 37 37 37 37 36 36 36 35 35 34 33 32 30 28 27
3 6 9 12 16 16 15 17 18 19 20 20 18 18 16 14 12 12 15 19 18 16 15 14 19 24 22 20 25 28 24 17 14 16 15 13 14 14 10 9 10 10 8 8 10 10 11 12 11 11 12 12 13 16 18 20 22 24 26 27 29 32 33 34 34 34 33 33 34 34 35 36 35 35 35 35 35 35 35 35 34 32 31 29 28 27
3 6 10 14 16 16 17 18 18 18 19 20 20 20 20 19 17 16 20 22 22 21 21 22 26 27 22 21 24 25 22 18 15 17 19 19 22 20 13 11 13 11 8 9 11 12 12 13 12 12 12 12 12 13 15 18 21 25 27 28 30 31 33 34 34 33 33 34 34 34 34 35 35 35 35 36 35 35 35 34 33 31 30 28 27 26
5 7 10 12 12 15 20 22 22 21 21 22 23 21 20 20 22 24 24 22 19 20 22 24 24 22 20 23 25 23 21 21 22 24 24 22 24 22 16 13 13 12 9 9 11 12 12 12 12 12 12 13 13 14 16 20 23 26 26 27 30 32 33 34 34 33 34 33 33 34 35 35 35 35 36 36 35 35 34 33 32 31 30 28 27 25
6 6 7 8 9 12 17 22 24 24 22 23 23 22 23 24 23 23 23 20 19 19 21 21 17 16 19 21 21 20 21 23 25 27 24 21 22 21 15 12 11 11 12 13 12 11 11 11 11 12 12 13 13 15 19 22 22 23 26 28 31 32 33 34 34 33 33 32 33 35 36 36 36 36 36 36 35 35 35 34 33 32 30 29 27 25
7 6 5 8 8 9 15 20 21 18 15 15 17 24 30 29 25 23 22 24 24 21 18 16 16 17 18 17 18 21 24 24 23 22 21 20 21 19 14 9 9 11 14 15 12 10 11 10 10 11 12 12 14 19 24 25 25 26 30 32 32 33 34 34 33 32 32 32 34 35 36 36 36 36 36 36 36 36 35 34 34 32 31 29 27 25
9 9 7 7 5 7 13 16 12 10 10 10 15 23 27 26 24 25 25 28 29 24 19 18 20 21 19 18 20 24 26 25 24 21 18 15 16 17 15 11 10 12 15 15 12 10 10 10 9 10 11 15 20 25 27 28 30 30 31 31 32 33 34 33 32 32 32 33 34 35 36 36 37 37 36 36 36 36 36 35 34 32 30 28 26 25
10 10 8 6 5 6 8 8 8 10 10 10 11 14 16 20 25 27 27 28 29 27 25 25 24 23 22 22 23 24 26 28 26 22 17 14 14 15 15 15 15 14 14 14 13 11 11 9 9 9 11 16 23 24 23 26 28 27 28 31 32 32 33 33 32 32 32 33 34 35 37 37 38 37 37 37 37 37 36 35 34 32 30 28 26 24
11 9 7 6 6 6 5 7 10 7 2 3 7 9 11 15 18 19 22 25 28 29 28 25 23 23 24 25 24 23 25 25 21 16 15 17 18 15 13 16 18 17 14 14 14 13 11 10 10 11 13 16 19 20 22 25 28 27 27 31 32 32 32 32 30 30 32 34 35 37 38 39 38 37 37 38 37 36 36 35 33 31 29 27 24 22
16 11 6 6 7 7 8 10 11 9 4 4 7 9 12 14 16 16 18 21 23 23 22 21 22 24 25 25 25 24 23 19 14 13 17 20 19 15 15 17 17 15 14 15 14 12 12 13 13 15 17 16 17 20 23 25 27 27 27 28 29 29 30 29 29 31 33 34 36 38 39 40 39 38 38 38 37 36 36 34 32 30 28 26 23 21
18 15 12 10 8 9 11 10 8 10 11 9 11 15 18 20 21 21 20 16 11 11 16 20 23 25 24 24 25 23 18 13 11 13 17 20 18 15 17 17 13 12 13 15 14 11 12 16 16 16 16 15 16 21 23 25 27 27 24 25 26 27 27 27 29 32 34 35 37 39 40 41 41 41 40 40 39 39 37 35 32 30 28 26 23 21
21 16 15 12 6 8 11 8 7 10 9 9 15 18 20 23 22 18 16 10 7 11 18 21 22 22 21 20 19 16 11 10 11 11 13 16 16 15 15 13 10 11 12 14 14 13 13 15 14 13 13 13 16 20 22 25 28 26 22 23 26 25 25 28 31 34 36 36 38 40 41 41 42 43 42 41 40 40 38 35 32 30 27 25 23 20
17 12 11 10 7 9 12 8 7 9 6 8 13 16 19 19 14 10 11 6 9 17 21 21 22 21 17 15 13 9 7 9 10 10 10 12 13 11 10 9 9 11 11 11 14 15 13 11 9 9 10 13 17 19 23 27 27 23 21 23 24 24 26 31 33 34 35 35 37 39 40 41 42 43 42 40 38 37 35 33 31 29 27 24 22 19
9 8 9 10 9 12 13 9 7 9 5 7 11 13 12 8 3 8 13 8 4 8 9 10 13 13 10 9 7 4 4 7 8 10 12 13 14 13 11 9 9 10 10 10 10 10 8 9 10 11 13 16 17 19 25 27 23 20 21 21 21 25 30 32 32 32 34 35 36 38 38 39 41 41 40 39 38 35 33 31 30 28 26 23 21 18
4 3 5 8 9 10 11 8 9 9 3 4 10 10 4 2 3 6 7 7 8 9 11 10 8 10 11 10 8 7 8 10 11 12 13 14 14 14 13 11 10 9 10 12 12 8 3 3 6 9 10 11 13 19 25 26 21 18 19 19 22 29 30 28 30 33 34 35 36 37 38 38 39 40 40 39 39 36 33 30 28 27 25 23 20 18
4 3 5 7 6 8 9 6 6 5 3 8 9 5 1 2 5 5 8 9 10 11 12 11 10 11 11 11 11 11 12 13 12 12 12 12 12 12 12 10 9 9 9 9 9 8 5 4 6 8 8 7 11 18 23 23 19 16 16 19 24 27 26 28 32 34 35 36 36 37 38 38 39 40 40 40 39 37 34 30 28 26 24 23 21 18
5 3 3 3 1 3 6 4 2 1 4 10 9 4 6 8 6 7 7 7 8 10 10 9 10 11 11 12 13 14 13 13 14 14 12 12 12 12 12 11 10 10 9 7 7 6 4 5 7 9 9 10 13 18 22 24 19 15 16 20 22 24 27 30 33 34 34 35 36 36 37 38 38 39 40 40 39 37 34 31 29 27 24 22 21 18
5 2 3 5 4 3 5 6 4 2 4 7 7 6 10 9 6 7 8 7 7 7 8 8 10 13 13 13 13 14 13 13 15 16 15 14 14 13 13 11 10 9 8 8 8 7 8 10 10 9 9 11 15 18 23 25 21 16 17 20 21 25 30 32 33 34 34 35 35 36 36 36 37 37 38 39 39 37 35 33 30 27 25 22 21 18
7 5 2 3 6 8 9 8 6 8 12 15 14 10 8 5 5 6 7 7 6 7 7 7 9 12 14 14 13 13 14 15 17 17 16 16 16 15 14 13 12 10 8 8 9 9 11 11 10 9 8 11 16 20 22 25 24 21 19 19 22 28 32 34 34 33 33 33 34 35 37 36 35 35 37 38 37 36 36 35 32 28 25 23 20 17
7 7 6 6 9 10 9 9 11 14 16 18 16 9 3 3 5 5 7 8 10 11 11 10 10 11 13 13 12 13 15 16 17 17 16 15 15 15 15 15 15 13 11 11 12 12 10 8 8 9 9 11 17 22 23 26 29 26 21 20 25 30 33 36 35 32 32 33 34 35 38 37 35 35 36 36 35 33 33 33 32 29 27 25 22 17
9 11 10 9 10 10 10 13 16 16 14 12 9 5 4 7 8 7 7 9 12 13 13 12 12 11 11 11 11 12 14 14 14 14 13 13 13 13 13 14 15 15 13 12 13 12 9 8 10 11 10 11 16 21 23 26 28 28 24 25 30 34 35 35 34 32 32 33 34 35 36 36 36 37 37 36 35 34 33 33 31 29 29 28 26 23
9 12 11 10 12 13 14 13 12 12 13 11 6 4 7 11 12 11 10 10 10 11 11 11 10 9 9 11 11 11 12 12 12 11 11 11 12 12 13 14 15 14 13 12 13 11 9 10 12 11 11 15 17 18 21 25 26 26 27 29 34 37 36 34 32 31 31 32 32 33 33 33 34 36 37 35 34 32 33 33 33 30 27 25 24 23
8 10 10 9 10 11 11 11 11 12 13 14 13 12 12 11 12 13 12 10 10 10 11 12 12 10 10 11 11 11 12 12 12 13 12 11 12 13 14 15 15 14 13 14 14 13 11 12 14 12 12 17 18 17 21 25 25 27 29 32 36 38 38 34 31 29 30 31 31 32 33 33 32 33 35 36 34 31 28 27 25 25 26 24 20 18
6 8 9 9 9 12 14 15 13 12 13 14 16 15 11 8 9 10 11 11 11 10 11 12 13 13 12 10 9 11 13 14 15 15 14 13 14 14 14 15 15 15 15 15 15 13 12 13 13 12 13 18 19 19 22 24 25 28 31 34 38 40 39 37 32 28 28 30 31 33 35 34 32 32 34 36 37 36 32 26 20 18 21 22 21 18
Wind_Direction
169 183 197 221 236 228 213 215 224 235 244 256 266 269 266 272 273 268 275 209 183 198 219 221 232 243 251 253 252 257 254 247 246 246 248 249 250 251 244 240 236 234 229 196 191 195 196 199 197 193 191 189 189 189 189 190 191 192 191 189 190 190 190 189 188 188 188 187 187 189 194 197 198 200 200 202 207 208 209 214 219 220 220 225 231 233
175 204 217 228 238 241 233 234 239 243 246 251 255 266 269 263 266 272 278 202 185 204 233 237 245 250 255 261 259 256 256 255 252 251 254 253 255 257 249 243 239 232 200 169 181 186 190 193 191 188 187 185 185 186 189 190 191 193 193 192 191 190 190 192 193 192 192 194 194 195 198 200 200 201 203 205 207 208 209 214 220 221 219 223 228 233
221 226 231 237 246 255 254 252 254 259 260 263 267 270 272 268 273 279 278 180 182 196 241 251 257 259 259 262 260 254 250 251 251 250 252 253 258 261 254 248 239 214 171 169 175 176 184 186 184 184 184 186 188 187 190 192 192 193 193 193 192 192 193 194 196 196 196 198 200 201 202 201 201 204 206 209 209 208 208 213 220 221 219 222 226 231
225 227 232 240 249 253 255 248 244 267 266 251 253 260 265 259 263 277 246 201 205 211 241 266 268 262 262 263 259 252 249 248 251 252 253 252 254 256 255 251 230 200 179 177 178 174 178 178 180 183 184 187 188 188 191 192 192 192 193 194 193 195 196 196 198 199 199 199 199 203 204 201 202 204 204 206 209 210 209 212 217 220 220 222 226 230
238 231 215 234 239 237 245 245 233 254 259 240 226 232 252 251 246 253 245 210 220 231 238 293 288 262 240 248 254 252 247 244 245 248 253 253 250 253 257 252 222 193 181 178 181 179 175 178 183 186 186 187 188 191 193 193 193 193 194 195 195 197 198 198 199 198 197 196 193 192 191 190 190 191 192 193 197 203 207 210 214 218 220 221 225 230
247 233 188 205 222 219 228 239 221 218 257 259 215 216 238 250 252 259 275 321 309 269 209 168 286 270 207 222 247 250 225 230 234 235 244 251 252 252 253 244 216 191 181 179 181 181 180 181 184 186 188 189 192 195 196 195 195 194 195 196 197 198 199 199 199 198 196 193 190 187 183 182 181 181 189 194 196 199 204 210 212 216 218 219 222 227
244 201 176 200 217 218 224 244 219 202 258 272 227 218 240 253 259 261 276 294 263 267 230 144 280 285 253 230 247 243 204 217 226 225 234 245 252 252 248 229 203 192 184 180 182 180 181 180 180 187 191 193 196 198 197 196 196 196 197 197 198 199 199 199 199 198 197 195 194 193 192 191 189 189 196 201 203 205 208 210 211 213 216 219 221 224
186 159 161 198 216 222 227 246 222 195 239 267 263 283 259 261 261 251 251 236 237 288 272 165 150 278 279 252 219 214 202 218 229 224 234 242 246 255 257 230 192 192 187 178 181 181 183 184 184 190 194 196 198 197 195 195 196 198 198 198 199 199 200 200 200 199 199 198 197 198 199 198 199 200 201 203 205 208 210 210 210 212 215 217 220 222
133 178 199 196 199 222 226 238 210 185 216 247 57 54 75 75 320 88 206 242 287 317 273 184 152 242 276 262 185 190 194 211 224 220 230 240 239 247 257 239 190 192 187 178 183 184 185 187 188 191 194 197 198 196 196 196 197 199 199 199 199 200 201 201 201 201 201 202 201 201 202 202 205 205 204 205 204 204 206 205 205 207 209 213 217 221
79 185 216 186 187 223 216 129 44 176 210 220 124 77 76 84 37 78 213 247 347 284 252 191 161 213 274 268 189 185 202 209 220 221 226 236 239 242 248 231 190 189 186 181 188 186 184 187 188 190 191 193 196 196 197 197 197 198 198 198 199 200 202 201 202 203 203 204 204 204 204 204 205 202 200 201 198 196 196 196 197 200 204 209 213 218
174 124 347 200 193 200 132 86 33 44 166 180 134 74 51 223 49 79 221 105 44 269 250 193 181 196 269 276 168 181 202 196 205 219 222 233 244 246 241 219 190 186 185 180 184 181 174 177 179 182 184 187 193 195 196 197 197 198 198 199 200 201 202 202 203 204 204 205 206 207 207 206 204 199 194 192 189 189 189 190 193 197 201 206 211 217
219 170 191 248 179 125 103 88 26 28 58 112 115 93 350 297 19 37 281 107 197 264 250 180 184 192 232 266 128 192 198 186 195 203 206 220 236 241 234 219 194 178 177 169 170 170 158 162 171 176 180 183 187 190 193 196 196 197 199 200 201 202 202 203 204 205 205 206 207 208 209 208 205 200 195 192 189 189 190 191 194 197 200 203 208 215
237 229 204 193 341 154 141 124 23 0 333 144 135 125 107 285 315 326 246 163 218 258 244 174 180 200 236 248 237 239 205 188 202 202 201 210 221 232 227 215 189 163 167 163 164 168 163 167 171 175 179 180 184 189 192 195 195 197 198 200 202 203 203 204 204 205 205 206 208 208 209 208 206 202 199 196 193 193 194 194 195 196 198 200 203 209
255 265 189 155 302 189 167 181 212 243 192 176 161 149 166 209 251 248 243 235 239 259 261 180 175 219 265 246 206 224 220 195 201 209 210 204 209 227 220 194 164 151 159 162 166 170 172 177 177 180 183 182 186 191 191 193 195 197 198 200 204 206 204 204 204 205 206 208 209 209 209 208 206 203 202 200 197 196 197 197 198 199 201 202 203 208
240 290 185 164 214 181 180 206 210 167 165 193 175 157 188 195 217 240 237 243 259 278 271 180 170 213 259 185 192 207 218 205 196 208 215 209 218 229 187 149 147 153 161 163 169 175 180 182 180 184 186 186 189 191 191 194 195 197 200 201 205 206 204 203 205 205 207 208 209 209 209 208 206 205 204 203 202 200 199 200 201 201 203 204 205 209
229 272 195 162 169 164 180 220 207 123 102 215 152 153 228 204 196 244 261 249 267 310 270 215 217 235 244 259 223 209 220 216 205 211 209 211 231 222 159 156 169 166 170 170 172 180 184 184 183 187 190 191 191 191 192 195 196 199 202 203 206 207 205 204 205 206 208 208 208 209 209 207 206 205 204 203 202 202 202 202 203 202 203 203 204 206
230 280 164 123 12 147 174 262 195 146 216 196 142 190 230 163 165 221 276 276 268 279 270 243 248 271 297 278 239 208 218 218 209 214 205 207 229 222 188 189 192 181 181 179 180 184 183 184 189 192 192 192 192 194 196 198 199 201 202 202 205 207 206 206 207 208 208 207 208 208 208 206 205 204 203 201 200 200 201 202 203 203 202 203 204 205
227 266 249 163 309 250 267 324 325 335 118 132 178 221 244 33 106 175 255 306 272 262 272 264 263 276 287 280 233 189 206 211 207 209 202 208 225 225 211 211 208 192 184 180 184 188 187 187 192 193 196 197 197 198 201 202 203 204 204 204 203 204 207 207 207 207 207 207 207 207 206 206 205 204 203 201 200 199 199 199 201 202 202 203 205 206
218 247 267 186 229 285 352 16 302 339 82 141 215 271 93 107 226 170 174 231 246 256 275 278 278 273 256 264 277 207 203 204 206 204 199 209 221 225 220 223 216 191 178 182 188 190 192 194 196 195 198 202 203 204 206 205 204 206 208 207 205 206 208 208 206 206 207 207 207 206 206 205 204 203 202 201 200 199 199 200 200 201 203 204 206 209
201 224 252 342 343 316 8 148 179 246 337 110 342 339 92 167 181 180 189 193 218 247 274 284 286 278 251 251 249 216 197 194 199 199 199 208 218 221 219 221 212 184 182 195 196 197 199 198 199 198 200 203 205 207 207 204 205 208 209 208 208 209 209 208 207 206 206 207 206 205 204 204 203 202 201 200 200 200 200 201 201 202 203 204 208 211
182 223 236 321 355 306 255 200 175 184 208 195 231 252 216 187 156 221 252 215 204 229 247 273 279 273 263 218 212 191 184 191 190 193 204 211 218 219 213 212 205 192 197 201 200 204 205 203 201 202 205 206 206 206 205 205 207 208 207 207 209 209 207 207 207 205 205 205 204 204 203 202 201 200 200 199 199 200 200 201 201 203 204 205 208 212
173 212 224 205 204 242 243 217 194 201 203 193 201 211 207 197 185 227 249 227 200 223 227 237 266 268 268 87 135 162 174 189 184 191 209 218 225 225 211 208 205 204 210 209 206 207 204 204 204 204 204 202 202 204 205 205 206 206 207 208 209 207 206 207 206 205 204 202 202 203 202 200 199 198 197 197 198 199 199 199 201 202 203 204 207 211
153 148 236 232 218 243 260 254 225 237 240 235 227 211 207 197 190 216 233 230 214 218 229 233 255 264 271 84 87 162 181 195 189 187 198 215 225 220 210 219 218 217 220 216 213 211 206 207 206 202 199 198 202 205 205 205 205 207 208 207 206 207 208 208 206 204 202 200 201 201 200 198 197 196 196 195 196 197 197 198 200 201 202 203 205 209
70 106 237 253 262 281 289 314 347 356 14 275 266 221 207 204 209 225 229 231 229 218 233 244 247 259 277 85 95 118 130 189 189 172 180 203 217 212 214 223 222 222 226 225 224 223 220 216 202 193 196 201 207 208 205 206 207 208 207 205 206 209 209 207 205 203 201 199 199 198 197 196 195 195 195 195 195 195 196 197 198 200 201 202 204 208
254 206 212 251 271 279 275 273 292 335 22 249 251 232 228 227 232 249 261 254 245 234 238 246 250 261 266 129 141 155 155 198 225 205 202 212 225 229 227 224 220 223 228 227 230 231 229 221 202 197 203 206 210 210 208 207 208 207 206 205 207 209 208 205 203 201 199 198 196 195 195 195 194 194 194 195 194 194 195 196 197 198 200 201 203 206
213 205 194 230 245 241 246 249 249 261 76 240 251 245 244 239 233 247 259 247 243 237 238 245 257 263 264 255 232 223 221 234 242 236 222 225 238 236 226 228 227 226 227 226 228 231 230 225 214 210 213 213 213 213 210 208 207 207 207 207 208 207 205 203 201 199 197 196 194 193 193 193 193 194 194 194 193 192 193 194 195 196 198 200 202 204
141 207 220 232 240 237 243 252 256 260 242 226 231 230 232 237 235 237 244 246 250 250 245 247 255 262 268 273 271 265 259 262 266 261 246 242 251 242 222 229 234 232 230 228 228 234 237 232 221 217 217 219 218 216 213 210 208 206 205 206 206 205 203 200 198 198 196 194 193 192 192 193 194 194 194 193 192 191 192 193 194 195 197 200 201 202
136 221 234 242 249 247 250 258 263 268 266 260 258 250 238 232 228 228 234 240 247 255 254 250 256 263 264 266 269 269 265 265 270 272 269 262 263 261 241 231 237 239 236 232 231 232 235 234 226 220 222 222 222 220 216 213 210 207 205 205 203 202 201 198 196 195 194 193 192 192 193 194 194 194 194 192 191 191 191 191 193 195 196 198 199 200
173 230 231 241 252 254 258 261 259 263 266 266 269 270 264 253 237 231 238 239 239 249 259 261 260 261 260 258 263 269 271 270 270 274 278 277 274 271 253 234 243 242 225 229 238 234 231 234 229 223 224 225 224 222 216 211 208 205 204 203 201 199 198 196 194 193 192 192 192 193 193 192 193 193 191 190 189 189 189 190 190 192 193 195 197 199
197 225 223 235 247 249 252 255 253 254 260 262 262 261 264 268 263 254 251 248 246 250 256 256 255 257 262 263 263 268 276 282 283 280 281 281 278 273 260 251 259 256 230 223 233 233 232 233 231 229 228 227 227 221 213 206 202 201 201 200 198 196 196 194 192 191 192 192 193 192 191 190 190 189 189 188 188 187 187 187 187 188 190 192 196 199
214 214 214 228 245 243 241 244 243 241 245 250 253 254 255 261 262 259 257 256 254 253 252 253 255 260 263 263 264 271 278 282 281 277 276 275 274 272 267 262 266 269 259 241 234 233 235 233 232 233 231 229 228 221 213 207 202 200 199 196 195 194 193 191 190 191 192 192 192 190 188 188 188 187 187 186 186 185 184 185 185 187 189 191 195 198
204 216 211 219 239 235 230 237 239 237 240 245 250 255 252 247 247 249 251 251 250 252 255 255 255 256 257 262 270 274 271 269 269 270 271 269 268 269 268 263 265 269 267 260 248 237 233 232 231 230 228 230 229 223 215 207 199 196 196 195 194 192 190 190 190 191 192 191 189 188 187 187 185 184 184 184 183 183 183 184 185 186 189 191 193 197
191 211 209 213 237 237 226 233 237 236 240 240 236 239 241 241 243 246 251 251 247 245 248 250 248 249 255 264 270 269 265 261 259 260 263 267 272 275 270 254 248 257 265 266 255 237 228 229 230 229 229 228 227 226 220 207 197 198 199 195 191 188 187 188 189 190 190 189 188 188 186 185 183 182 182 182 182 182 182 184 185 186 189 191 193 197
198 212 218 214 233 241 230 235 239 232 230 226 218 224 232 238 241 243 245 247 246 244 242 244 248 252 254 255 254 257 260 260 257 254 256 262 272 279 279 268 250 250 261 265 256 240 233 232 233 234 232 229 229 231 224 210 203 204 199 191 187 185 185 186 188 188 188 187 187 187 185 184 182 181 181 181 181 181 182 184 186 186 189 190 192 196
203 212 225 223 235 243 230 230 238 232 227 228 225 221 224 232 238 241 245 247 250 253 250 248 249 250 251 250 249 250 253 256 258 260 263 263 261 267 276 277 268 256 254 260 260 255 249 242 238 240 236 231 231 227 217 207 202 197 189 185 184 184 185 186 187 187 187 186 186 185 184 183 182 180 179 180 180 182 183 184 185 186 188 190 193 196
215 214 217 216 227 237 222 215 231 249 257 200 217 217 221 232 239 246 252 250 247 248 249 249 250 249 248 250 250 250 252 256 263 270 270 265 259 257 259 262 263 259 252 253 256 253 251 243 231 234 240 235 225 213 204 200 195 186 181 183 183 183 185 185 185 186 186 186 185 185 184 182 181 179 178 179 179 180 182 183 184 186 186 187 191 194
219 219 216 221 217 216 227 228 235 261 270 192 190 202 212 223 226 233 247 245 237 240 246 249 250 249 249 250 250 252 256 261 271 271 262 259 257 254 250 250 253 255 255 258 258 252 253 254 246 241 240 228 211 204 199 195 188 179 176 179 180 182 183 184 186 187 187 187 186 185 184 182 180 178 177 178 179 180 182 183 183 185 185 184 186 189
216 214 212 220 209 206 232 240 235 248 244 217 211 215 217 225 227 232 247 249 229 232 242 242 244 244 244 247 250 254 259 263 263 259 257 259 259 256 256 258 253 245 249 258 260 254 254 257 256 244 229 213 206 205 198 188 181 176 173 176 179 180 182 186 190 190 188 188 187 184 184 183 181 179 178 179 181 181 182 183 182 183 184 184 185 188
222 220 218 226 217 208 229 236 226 240 240 212 217 223 225 233 235 239 258 259 207 221 240 241 244 244 242 246 251 252 256 255 252 254 253 255 259 260 263 266 257 243 246 252 253 252 253 253 248 231 209 201 206 204 194 184 179 174 174 179 180 180 186 192 194 192 190 189 187 184 183 183 182 182 181 181 183 182 181 181 181 181 182 183 184 185
225 222 220 228 226 218 232 240 232 245 242 196 208 221 228 236 234 236 260 250 189 212 231 237 244 250 250 255 258 251 249 256 263 274 274 270 274 279 274 264 253 248 249 248 248 250 247 233 212 193 194 205 207 198 189 182 177 176 180 181 180 186 196 198 195 192 190 187 184 183 182 182 183 183 182 181 180 180 180 179 178 178 178 178 178 180
232 226 219 226 228 223 230 241 243 247 231 187 204 220 228 238 223 224 248 261 229 236 256 259 265 280 296 302 310 316 304 309 319 324 326 323 316 312 305 292 277 265 263 272 275 262 232 205 199 203 213 214 204 191 186 180 177 183 184 178 185 200 204 199 192 188 186 183 181 180 180 181 182 182 181 180 178 176 176 176 175 175 174 173 173 175
222 225 224 225 234 234 232 244 258 251 226 203 231 232 217 230 253 251 280 337 11 10 8 5 357 4 7 1 359 349 332 338 344 344 343 339 331 326 327 327 324 313 305 314 329 341 343 258 245 244 243 227 201 191 187 181 182 188 181 181 201 208 201 192 187 184 181 178 177 178 178 179 181 180 179 179 176 172 170 171 173 174 172 172 173 173
237 235 227 207 217 238 234 240 254 251 4 347 299 275 352 313 294 325 357 17 33 33 22 12 13 18 10 0 354 343 338 340 341 342 341 334 332 332 332 335 337 328 315 314 329 343 344 313 281 274 274 248 212 198 190 186 189 189 185 199 210 202 189 185 184 179 176 175 174 176 177 177 178 178 176 176 174 170 166 166 169 170 169 170 171 170
284 273 265 260 302 255 235 246 267 226 2 358 359 358 325 319 345 12 6 10 26 30 21 3 358 1 358 352 342 335 336 333 329 331 330 326 327 327 324 329 331 323 317 313 312 311 290 260 260 263 255 232 214 203 195 194 194 193 202 212 205 187 180 182 179 174 173 173 173 173 175 175 175 175 174 173 172 168 164 164 166 165 166 170 171 168
311 336 281 279 311 318 285 292 316 329 324 341 1 342 312 321 17 34 18 15 17 17 13 355 340 337 337 336 329 322 322 319 317 317 314 313 314 311 309 314 310 305 305 297 288 273 250 244 253 257 244 225 215 208 203 201 197 200 214 214 195 181 178 176 172 172 172 171 171 172 172 171 171 171 172 171 170 167 164 163 163 162 164 168 168 165
320 330 291 278 310 320 304 284 296 326 326 323 325 321 315 339 24 27 14 3 346 343 344 330 320 319 317 316 316 311 308 307 306 304 303 303 302 300 301 302 297 294 290 281 277 267 251 247 250 247 240 230 219 212 208 206 204 209 217 207 189 183 179 173 171 172 171 170 171 171 169 167 166 167 168 169 169 168 167 165 162 160 162 165 164 162
311 318 320 310 306 307 299 294 307 316 313 309 308 305 313 353 355 358 355 339 327 323 318 309 306 304 300 300 301 297 297 299 300 299 300 300 298 299 302 301 298 296 290 281 277 267 248 237 241 240 239 237 226 216 209 208 209 213 215 202 190 185 179 175 173 172 171 171 170 169 168 167 165 164 165 165 164 164 164 164 162 160 161 163 162 161
305 313 315 305 295 287 277 284 296 296 289 288 292 302 337 335 327 329 330 324 318 313 310 310 307 299 295 295 294 292 292 292 290 290 293 295 296 299 300 297 296 296 292 287 279 264 236 222 238 240 238 243 235 219 211 211 212 212 208 200 192 185 179 176 176 173 172 171 169 169 171 169 165 163 163 163 162 161 161 161 162 164 166 170 170 167
287 292 295 296 295 290 283 288 299 300 296 295 297 318 327 319 318 325 328 326 321 317 318 320 316 313 314 310 304 301 298 295 295 297 298 299 301 303 302 300 299 298 297 296 285 266 239 231 240 238 238 246 240 221 213 216 215 211 206 199 191 183 178 177 176 173 172 171 170 171 172 169 166 164 161 160 161 162 163 164 165 166 168 174 177 173
266 270 278 287 289 288 295 314 326 318 307 304 309 320 327 327 332 339 340 338 338 336 334 332 327 324 321 314 312 312 307 304 306 307 306 305 304 306 306 305 304 301 299 296 290 278 256 242 240 236 239 246 240 221 216 219 216 211 207 198 190 184 179 175 173 172 172 172 173 173 172 168 167 165 161 160 159 156 156 160 164 167 168 169 170 167
255 266 276 284 286 287 295 304 308 301 295 300 313 327 343 4 6 353 341 335 334 332 329 325 320 317 313 307 303 302 301 302 304 303 303 300 298 298 298 297 297 297 296 294 291 286 273 257 245 237 242 248 241 227 223 222 214 208 205 197 190 186 181 175 171 172 175 177 177 176 173 169 166 164 163 161 158 153 149 147 151 162 169 165 159 157